Regional Weather Roundup
Issued by NWS Albany, NY

Home | Current Version | Previous Version | Text Only | Print | Product List | Glossary On
Versions: 1 2 3 4 5 6 7 8 9 10 11 12 13 14 15 16 17 18 19 20 21 22 23 24 25 26 27 28
000
ASUS41 KALY 290710
RWRALY

NEW YORK STATE HOURLY WEATHER ROUNDUP
NATIONAL WEATHER SERVICE ALBANY NY
300 AM EDT FRI APR 29 2016

NOTE: "FAIR" INDICATES FEW OR NO CLOUDS BELOW 12,000 FEET WITH NO
SIGNIFICANT WEATHER AND/OR NO OBSTRUCTIONS TO VISIBILITY.

NYZ032-033-038>043-046>054-057>066-NYZ062>081-082-084-290800-
EAST


CITY           SKY/WX    TMP DP  RH WIND       PRES   REMARKS
ALBANY         CLOUDY    39  19  44 N10       30.09S WCI  32
GLENS FALLS    CLOUDY    39  18  42 N10       30.10F WCI  32
POUGHKEEPSIE   CLOUDY    50  39  66 CALM      30.04S
NEWBURGH       CLOUDY    48  41  76 CALM      30.05S
MONTGOMERY     CLOUDY    47  41  80 SE3       30.03S
WHITE PLAINS   CLOUDY    46  38  73 E3        30.04S
ISLIP          CLOUDY    48  37  65 E6        30.05S
NEW YORK CITY  CLOUDY    50  36  58 E6        30.04F
CENTRAL PARK   CLOUDY    49  37  63 CALM      30.06F
$$

NYZ005>009-017-018-044>046-055-056-290800-
CENTRAL


CITY           SKY/WX    TMP DP  RH WIND       PRES   REMARKS
FULTON         PTCLDY    41  25  53 NE3       30.05S
SYRACUSE       CLOUDY    40  28  62 CALM      30.04S
ROME           PTCLDY    40  27  59 E6        30.06S
ELMIRA         LGT RAIN  43  32  65 E3        30.02S
BINGHAMTON     CLOUDY    43  37  79 NE3       29.99F
MONTICELLO     CLOUDY    43  39  87 SE5       30.02F
$$

NYZ026>034-041>043-087-290800-
NORTH


CITY           SKY/WX    TMP DP  RH WIND       PRES   REMARKS
WATERTOWN      PTCLDY    34  20  56 NE9       30.07F WCI  27
FORT DRUM      NOT AVBL
MASSENA        PTCLDY    30  18  60 NE6       30.15F WCI  24
SARANAC LAKE   CLEAR     29  13  51 E6        30.06S WCI  23
PLATTSBURGH    CLEAR     27  18  69 CALM      30.15F
$$

NYZ001>004-010>016-019>021-085-290800-
WEST


CITY           SKY/WX    TMP DP  RH WIND       PRES   REMARKS
NIAGARA FALLS  MOCLDY    43  25  49 E12       30.04F
BUFFALO        CLOUDY    43  24  47 E10       30.04F
DUNKIRK        CLOUDY    43  32  65 NE9       30.00F
JAMESTOWN      CLOUDY    41  36  81 E9        29.96S
WELLSVILLE     CLOUDY    38  31  76 E6        30.00S WCI  33
ROCHESTER      CLOUDY    43  23  45 E6        30.06F
PENN YAN       CLOUDY    42  26  53 N3        30.04F
$$

             KEY
       WCI = WIND CHILL INDEX
       VSB = VISIBILITY
       HX  = HEAT INDEX
$$




USA.gov is the U.S. government's official web portal to all federal, state and local government web resources and services.